FW8189 Weather Reports


time (UTC)temp
C
wind
direction
speed
KPH
gust
KPH
rain 1hr
cm
rain 24hr
cm
rain mn
cm
humidity
%
barometer
mb
20260504050718 6 292 0.0 0.0 0.00 0.00 0.00 48 1021.0
20260504045719 6 292 0.0 0.0 0.00 0.00 0.00 49 1021.1
20260504044718 6 292 0.0 0.0 0.00 0.00 0.00 49 1021.1
20260504043718 6 292 0.0 0.0 0.00 0.00 0.00 47 1020.9
20260504041718 7 292 0.0 0.0 0.00 0.00 0.00 47 1020.9
20260504040718 7 292 0.0 0.0 0.00 0.00 0.00 47 1020.9
20260504034728 8 292 0.0 0.0 0.00 0.00 0.00 47 1020.7
20260504032728 8 315 0.0 1.6 0.00 0.00 0.00 46 1020.8
20260504030729 8 281 1.6 3.2 0.00 0.00 0.00 45 1020.8
20260504024745 8 180 0.0 0.0 0.00 0.00 0.00 45 1020.9
20260504023843 8 180 0.0 0.0 0.00 0.00 0.00 44 1020.9
20260504022929 8 180 0.0 0.0 0.00 0.00 0.00 44 1020.9
20260504021928 8 180 0.0 0.0 0.00 0.00 0.00 45 1020.8
20260504020929 9 180 0.0 0.0 0.00 0.00 0.00 45 1020.6
20260504015028 10 180 0.0 0.0 0.00 0.00 0.00 44 1020.4
20260504014027 10 180 0.0 0.0 0.00 0.00 0.00 44 1020.4
20260504013028 10 180 0.0 0.0 0.00 0.00 0.00 43 1020.3
20260504012028 11 180 0.0 0.0 0.00 0.00 0.00 44 1020.3
20260504011127 11 180 0.0 0.0 0.00 0.00 0.00 44 1020.3
20260504010127 11 180 0.0 0.0 0.00 0.00 0.00 44 1020.0
20260504010028 11 180 0.0 0.0 0.00 0.00 0.00 44 1020.0
20260504005046 12 180 0.0 0.0 0.00 0.00 0.00 43 1020.0
20260504004029 12 180 0.0 0.0 0.00 0.00 0.00 44 1019.9
20260504002027 13 180 0.0 0.0 0.00 0.00 0.00 44 1019.7
20260504001028 13 180 0.0 0.0 0.00 0.00 0.00 44 1019.7
20260504000029 13 180 0.0 0.0 0.00 0.00 0.00 44 1019.6
20260503235027 13 180 0.0 0.0 0.00 0.00 0.00 44 1019.6
20260503234027 14 180 0.0 0.0 0.00 0.00 0.00 44 1019.7
20260503233027 14 180 0.0 0.0 0.00 0.00 0.00 44 1019.6
20260503232026 15 180 0.0 0.0 0.00 0.00 0.00 45 1019.6
20260503231045 15 22 0.0 1.6 0.00 0.00 0.00 44 1019.5
20260503225128 15 180 0.0 1.6 0.00 0.00 0.00 44 1019.6
20260503224127 15 315 0.0 0.0 0.00 0.00 0.00 45 1019.5
20260503223127 16 360 0.0 0.0 0.00 0.00 0.00 45 1019.5
20260503222128 16 22 0.0 1.6 0.00 0.00 0.00 46 1019.5
20260503221128 16 126 1.6 6.4 0.00 0.00 0.00 45 1019.4
20260503220128 17 22 0.0 1.6 0.00 0.00 0.00 46 1019.6
20260503213127 18 180 0.0 0.0 0.00 0.00 0.00 47 1019.6
20260503212127 18 97 0.0 3.2 0.00 0.00 0.00 48 1019.7
20260503211128 20 15 1.6 4.8 0.00 0.00 0.00 49 1019.8
20260503205128 21 75 3.2 8.0 0.00 0.00 0.00 50 1019.9
20260503204127 22 146 1.6 6.4 0.00 0.00 0.00 51 1020.1
20260503202128 21 80 1.6 4.8 0.00 0.00 0.00 53 1020.3
20260503201226 21 178 1.6 4.8 0.00 0.00 0.00 54 1020.4
20260503200229 21 102 3.2 8.0 0.00 0.00 0.00 55 1020.6
20260503194327 21 161 0.0 1.6 0.00 0.00 0.00 57 1021.0
20260503194228 21 22 0.0 1.6 0.00 0.00 0.00 57 1020.9
20260503192230 21 166 0.0 0.0 0.00 0.00 0.00 58 1021.2
20260503191327 20 115 0.0 1.6 0.00 0.00 0.00 59 1021.2
20260503191227 20 157 0.0 3.2 0.00 0.00 0.00 59 1021.3
20260503185228 18 159 3.2 11.3 0.00 0.00 0.00 60 1021.6
20260503183228 18 82 1.6 4.8 0.00 0.00 0.00 61 1021.7
20260503182227 18 163 1.6 4.8 0.00 0.00 0.00 63 1021.8
20260503181326 18 148 0.0 1.6 0.00 0.00 0.00 64 1022.1
20260503180328 18 160 0.0 4.8 0.00 0.00 0.00 65 1021.9
20260503175329 17 138 4.8 8.0 0.00 0.00 0.00 65 1022.0
20260503173328 17 155 3.2 6.4 0.00 0.00 0.00 67 1022.3
20260503172327 16 116 1.6 4.8 0.00 0.00 0.00 68 1022.5
20260503171426 16 180 4.8 6.4 0.00 0.00 0.00 68 1022.5
20260503170526 16 132 3.2 6.4 0.00 0.00 0.00 69 1022.7
20260503130925 8 112 0.0 3.2 0.00 0.00 0.00 75 1023.4
20260503110127 1 315 0.0 0.0 0.00 0.00 0.00 68 1021.2
20260503100226 2 270 0.0 0.0 0.00 0.00 0.00 65 1020.6
20260503090425 2 270 0.0 0.0 0.00 0.00 0.00 62 1020.2
20260503081526 3 270 0.0 0.0 0.00 0.00 0.00 60 1020.0
20260503080527 3 270 0.0 0.0 0.00 0.00 0.00 59 1019.8
20260503072626 3 270 0.0 0.0 0.00 0.00 0.00 58 1019.7
20260503071626 3 270 0.0 0.0 0.00 0.00 0.00 57 1019.6